RH
8 9 12 13 20 39 53 46 41 40 38 37 30 32 30 30 29 29 31 31 30 31 31 31 32 31 30 32 33 36 38 39 41 43 46 45 46 47 49 51 51 51 48
15 11 9 14 15 29 44 51 41 43 38 39 34 32 35 33 31 30 29 30 30 31 32 33 34 35 35 34 34 34 36 38 39 40 42 46 47 46 46 49 52 52 50
13 19 13 14 19 24 47 55 48 40 42 39 41 39 40 39 36 31 30 31 32 32 32 32 34 38 40 39 38 36 36 37 39 40 43 47 44 46 47 50 53 49 50
16 15 18 20 24 23 33 50 54 48 45 47 43 42 42 39 36 34 34 35 35 34 34 35 35 37 40 41 42 44 40 41 39 41 41 45 45 47 46 47 48 52 55
12 12 12 16 24 27 27 44 65 57 60 53 56 46 45 46 46 46 45 44 43 43 41 38 39 38 40 39 41 44 44 41 42 41 42 45 46 48 52 51 53 58 67
18 15 12 14 18 23 27 24 33 57 64 60 70 58 50 53 55 52 48 44 38 34 35 35 37 39 41 39 37 41 47 45 44 45 43 43 48 53 57 61 65 67 72
31 24 21 16 19 21 25 29 26 30 30 34 40 43 47 47 44 44 43 41 36 33 28 29 31 32 35 40 41 44 47 51 48 49 46 51 56 59 63 68 71 75 76
46 38 31 26 21 21 21 22 26 26 28 32 33 33 36 38 37 35 33 30 34 31 30 29 30 32 35 37 40 44 47 53 53 54 57 60 61 62 67 70 72 75 77
55 51 44 39 36 29 30 25 21 23 23 26 26 30 32 34 33 31 29 27 30 33 34 36 33 31 35 37 43 47 49 53 55 60 61 62 63 66 69 71 74 78 76
54 53 51 45 44 46 45 39 29 22 21 20 21 24 24 25 26 29 25 26 27 34 36 37 31 31 38 40 44 50 54 55 57 62 63 65 70 72 74 74 76 80 77
44 45 49 48 46 44 46 49 48 40 34 28 25 26 34 40 35 28 28 26 27 26 35 43 42 44 47 44 47 50 53 59 62 64 67 71 75 78 77 77 80 78 76
49 43 40 39 35 33 34 38 42 48 46 45 41 32 34 47 46 47 43 32 29 30 36 43 48 51 51 48 49 52 57 61 65 70 77 77 74 81 84 80 83 79 75
56 52 47 39 34 32 31 30 33 34 38 40 40 44 47 42 35 36 37 38 34 34 37 41 44 47 50 49 54 57 60 64 65 72 76 79 83 84 77 82 79 77 74
66 62 52 45 40 37 34 32 31 31 32 32 33 36 40 46 47 43 40 41 46 42 46 46 45 46 50 50 52 57 60 63 67 74 76 78 84 81 84 81 78 78 72
60 63 62 54 48 46 42 39 35 32 32 32 32 33 32 33 35 42 44 44 46 50 49 48 47 48 50 51 53 55 58 63 67 70 72 79 79 78 85 81 78 77 65
59 59 59 61 58 51 48 50 46 42 36 35 34 34 34 34 33 31 31 34 36 37 40 43 43 43 45 48 50 53 54 58 66 76 71 73 78 83 84 81 74 73 62
52 53 53 52 53 53 51 48 51 52 46 44 39 40 39 37 35 33 33 34 34 35 35 38 37 36 38 45 44 46 48 55 62 69 65 75 82 86 85 78 74 69 67
55 51 49 48 51 50 54 52 51 51 53 51 48 46 42 37 38 39 38 37 38 40 38 41 44 42 39 37 36 41 44 53 57 63 73 84 89 88 82 78 74 72 68
58 53 51 48 45 45 49 50 50 50 48 46 50 52 51 48 44 41 39 40 40 42 46 46 48 49 50 53 48 49 51 56 61 74 82 89 92 87 82 78 75 73 71
60 54 49 44 40 39 42 43 41 42 44 45 45 47 51 52 50 49 46 41 41 44 48 50 53 58 57 59 62 64 64 65 69 79 91 96 91 86 83 81 76 73 69
47 50 50 46 42 38 33 35 36 37 36 36 38 39 40 43 46 48 49 48 42 42 46 51 53 59 63 63 62 69 73 78 85 90 95 96 88 89 86 82 78 73 73
48 47 50 48 45 42 40 36 34 25 31 34 38 38 39 41 39 37 39 42 45 43 48 54 56 59 67 68 70 78 84 87 91 94 95 93 89 90 87 82 78 78 74
58 56 57 55 54 48 44 41 34 39 35 33 30 34 40 42 41 37 36 34 38 43 47 53 59 63 72 75 84 90 93 91 92 94 94 95 96 92 81 82 81 77 81
62 63 66 62 60 58 53 52 50 49 46 37 32 29 28 28 31 33 35 34 32 39 43 52 59 68 75 79 87 94 96 98 95 98 97 96 90 87 82 79 78 87 96
54 58 61 63 63 68 59 58 55 54 51 45 40 34 30 27 28 30 31 31 30 30 37 49 54 68 73 81 84 90 88 90 93 95 93 93 85 83 85 87 94 98 89
58 60 62 64 66 69 72 68 75 73 59 52 45 40 35 32 29 31 33 33 31 32 36 41 52 65 78 82 85 87 88 93 93 89 90 81 80 88 95 97 98 94 84